| time (UTC) | temp F | wind direction | speed MPH | gust MPH | rain 1hr in | rain 24hr in | rain mn in | humidity % | barometer mb |
| 20260509160006 | 61 | 189 | 7.0 | 14.0 | 0.00 | 0.00 | 0.00 | 76 | 1018.5 |
| 20260509155107 | 61 | 201 | 7.0 | 15.0 | 0.00 | 0.00 | 0.00 | 76 | 1018.7 |
| 20260509154206 | 60 | 203 | 7.0 | 15.0 | 0.00 | 0.00 | 0.00 | 77 | 1018.6 |
| 20260509153306 | 60 | 186 | 8.0 | 14.0 | 0.00 | 0.00 | 0.00 | 78 | 1018.8 |
| 20260509152406 | 60 | 191 | 5.0 | 13.0 | 0.00 | 0.00 | 0.00 | 79 | 1018.8 |
| 20260509151507 | 59 | 198 | 7.0 | 15.0 | 0.00 | 0.00 | 0.00 | 79 | 1018.9 |
| 20260509150606 | 59 | 191 | 6.0 | 13.0 | 0.00 | 0.00 | 0.00 | 79 | 1019.0 |
| 20260509145706 | 59 | 179 | 6.0 | 13.0 | 0.00 | 0.00 | 0.00 | 78 | 1019.0 |
| 20260509144806 | 60 | 165 | 6.0 | 10.0 | 0.00 | 0.00 | 0.00 | 78 | 1018.9 |
| 20260509143906 | 59 | 172 | 5.0 | 11.0 | 0.00 | 0.00 | 0.00 | 77 | 1019.0 |
| 20260509143006 | 59 | 153 | 6.0 | 12.0 | 0.00 | 0.00 | 0.00 | 77 | 1019.0 |
| 20260509142106 | 59 | 169 | 4.0 | 12.0 | 0.00 | 0.00 | 0.00 | 76 | 1019.0 |
| 20260509141206 | 59 | 159 | 5.0 | 10.0 | 0.00 | 0.00 | 0.00 | 76 | 1018.9 |
| 20260509140306 | 59 | 165 | 5.0 | 10.0 | 0.00 | 0.00 | 0.00 | 76 | 1018.9 |
| 20260509135408 | 58 | 207 | 4.0 | 9.0 | 0.00 | 0.00 | 0.00 | 76 | 1019.1 |
| 20260509134506 | 58 | 215 | 5.0 | 9.0 | 0.00 | 0.00 | 0.00 | 77 | 1019.2 |
| 20260509133605 | 58 | 197 | 3.0 | 9.0 | 0.00 | 0.00 | 0.00 | 78 | 1019.1 |
| 20260509131806 | 57 | 185 | 3.0 | 7.0 | 0.00 | 0.00 | 0.00 | 77 | 1019.3 |
| 20260509130906 | 57 | 197 | 4.0 | 11.0 | 0.00 | 0.00 | 0.00 | 77 | 1019.3 |
| 20260509130006 | 58 | 191 | 5.0 | 12.0 | 0.00 | 0.00 | 0.00 | 75 | 1019.3 |
| 20260509125105 | 58 | 193 | 4.0 | 9.0 | 0.00 | 0.00 | 0.00 | 77 | 1019.3 |
| 20260509124206 | 57 | 187 | 4.0 | 10.0 | 0.00 | 0.00 | 0.00 | 78 | 1019.4 |
| 20260509123305 | 56 | 175 | 3.0 | 8.0 | 0.00 | 0.00 | 0.00 | 81 | 1019.4 |
| 20260509122405 | 56 | 197 | 3.0 | 8.0 | 0.00 | 0.00 | 0.00 | 82 | 1019.4 |
| 20260509120605 | 54 | 182 | 3.0 | 6.0 | 0.00 | 0.00 | 0.00 | 84 | 1019.5 |
| 20260509115706 | 54 | 168 | 3.0 | 6.0 | 0.00 | 0.00 | 0.00 | 85 | 1019.4 |
| 20260509114805 | 54 | 166 | 3.0 | 8.0 | 0.00 | 0.00 | 0.00 | 85 | 1019.7 |
| 20260509113905 | 53 | 167 | 2.0 | 5.0 | 0.00 | 0.00 | 0.00 | 86 | 1019.6 |
| 20260509112105 | 53 | 136 | 1.0 | 4.0 | 0.00 | 0.00 | 0.00 | 89 | 1019.7 |
| 20260509111205 | 52 | 119 | 2.0 | 3.0 | 0.00 | 0.00 | 0.00 | 90 | 1019.6 |
| 20260509110305 | 52 | 106 | 2.0 | 3.0 | 0.00 | 0.00 | 0.00 | 90 | 1019.5 |
| 20260509104505 | 51 | 123 | 0.0 | 2.0 | 0.00 | 0.00 | 0.00 | 91 | 1019.3 |
| 20260509103606 | 51 | 93 | 0.0 | 2.0 | 0.00 | 0.00 | 0.00 | 91 | 1019.2 |
| 20260509102705 | 51 | 0 | 0.0 | 0.0 | 0.00 | 0.00 | 0.00 | 91 | 1019.1 |
| 20260509101807 | 51 | 92 | 1.0 | 2.0 | 0.00 | 0.00 | 0.00 | 91 | 1019.1 |
| 20260509100905 | 51 | 109 | 1.0 | 4.0 | 0.00 | 0.00 | 0.00 | 91 | 1019.1 |
| 20260509100005 | 51 | 90 | 1.0 | 3.0 | 0.00 | 0.00 | 0.00 | 91 | 1019.1 |
| 20260509095105 | 51 | 0 | 0.0 | 0.0 | 0.00 | 0.00 | 0.00 | 91 | 1019.1 |
| 20260509094207 | 51 | 0 | 0.0 | 0.0 | 0.00 | 0.00 | 0.00 | 91 | 1019.1 |
| 20260509093305 | 51 | 0 | 0.0 | 0.0 | 0.00 | 0.00 | 0.00 | 91 | 1019.1 |
| 20260509092406 | 51 | 114 | 1.0 | 3.0 | 0.00 | 0.00 | 0.00 | 90 | 1019.0 |
| 20260509091505 | 51 | 107 | 1.0 | 3.0 | 0.00 | 0.00 | 0.00 | 90 | 1018.9 |
| 20260509090605 | 51 | 73 | 2.0 | 3.0 | 0.00 | 0.00 | 0.00 | 90 | 1018.7 |
| 20260509085705 | 51 | 83 | 1.0 | 2.0 | 0.00 | 0.00 | 0.00 | 90 | 1018.9 |
| 20260509084804 | 51 | 89 | 1.0 | 2.0 | 0.00 | 0.00 | 0.00 | 90 | 1019.1 |
| 20260509083905 | 51 | 118 | 1.0 | 3.0 | 0.00 | 0.00 | 0.00 | 90 | 1019.2 |
| 20260509083005 | 51 | 141 | 1.0 | 3.0 | 0.00 | 0.00 | 0.00 | 90 | 1019.2 |
| 20260509082104 | 51 | 139 | 1.0 | 2.0 | 0.00 | 0.00 | 0.00 | 90 | 1019.2 |
| 20260509081205 | 51 | 155 | 2.0 | 4.0 | 0.00 | 0.00 | 0.00 | 90 | 1019.4 |
| 20260509080305 | 51 | 126 | 2.0 | 3.0 | 0.00 | 0.00 | 0.00 | 90 | 1019.1 |
| 20260509075405 | 51 | 90 | 1.0 | 2.0 | 0.00 | 0.00 | 0.00 | 89 | 1019.0 |
| 20260509074504 | 51 | 93 | 2.0 | 3.0 | 0.00 | 0.00 | 0.00 | 89 | 1019.0 |
| 20260509073605 | 51 | 85 | 2.0 | 3.0 | 0.00 | 0.00 | 0.00 | 89 | 1018.9 |
| 20260509072704 | 51 | 91 | 2.0 | 3.0 | 0.00 | 0.00 | 0.00 | 89 | 1018.9 |
| 20260509071805 | 51 | 104 | 1.0 | 3.0 | 0.00 | 0.00 | 0.00 | 89 | 1018.9 |
| 20260509070904 | 51 | 0 | 0.0 | 0.0 | 0.00 | 0.00 | 0.00 | 88 | 1019.0 |
| 20260509070004 | 51 | 0 | 0.0 | 0.0 | 0.00 | 0.00 | 0.00 | 88 | 1019.1 |
| 20260509065105 | 51 | 0 | 0.0 | 0.0 | 0.00 | 0.00 | 0.00 | 87 | 1019.3 |
| 20260509064204 | 51 | 145 | 1.0 | 3.0 | 0.00 | 0.00 | 0.00 | 87 | 1019.4 |
| 20260509063304 | 51 | 159 | 1.0 | 3.0 | 0.00 | 0.00 | 0.00 | 86 | 1019.7 |
| 20260509062404 | 51 | 162 | 1.0 | 3.0 | 0.00 | 0.00 | 0.00 | 86 | 1019.7 |
| 20260509060605 | 51 | 0 | 0.0 | 0.0 | 0.00 | 0.00 | 0.00 | 86 | 1019.6 |
| 20260509055704 | 50 | 0 | 0.0 | 0.0 | 0.00 | 0.00 | 0.00 | 87 | 1019.7 |
| 20260509054804 | 50 | 0 | 0.0 | 0.0 | 0.00 | 0.00 | 0.00 | 87 | 1019.7 |
| 20260509053905 | 50 | 0 | 0.0 | 0.0 | 0.00 | 0.00 | 0.00 | 87 | 1019.5 |
| 20260509053004 | 49 | 0 | 0.0 | 0.0 | 0.00 | 0.00 | 0.00 | 87 | 1019.5 |
| 20260509052106 | 49 | 0 | 0.0 | 0.0 | 0.00 | 0.00 | 0.00 | 87 | 1019.4 |
| 20260509050305 | 49 | 0 | 0.0 | 0.0 | 0.00 | 0.00 | 0.00 | 86 | 1019.6 |
| 20260509045404 | 49 | 0 | 0.0 | 0.0 | 0.00 | 0.00 | 0.00 | 85 | 1019.7 |
| 20260509044504 | 50 | 0 | 0.0 | 0.0 | 0.00 | 0.00 | 0.00 | 83 | 1019.6 |
| 20260509043605 | 51 | 0 | 0.0 | 0.0 | 0.00 | 0.00 | 0.00 | 83 | 1019.5 |
| 20260509041804 | 52 | 0 | 0.0 | 0.0 | 0.00 | 0.00 | 0.00 | 82 | 1019.4 |
| 20260509040904 | 52 | 0 | 0.0 | 0.0 | 0.00 | 0.00 | 0.00 | 81 | 1019.6 |
| 20260509040004 | 52 | 0 | 0.0 | 0.0 | 0.00 | 0.00 | 0.00 | 81 | 1019.7 |
| 20260509035103 | 52 | 156 | 1.0 | 2.0 | 0.00 | 0.00 | 0.00 | 81 | 1019.8 |
| 20260509034204 | 52 | 185 | 0.0 | 2.0 | 0.00 | 0.00 | 0.00 | 81 | 1019.8 |
| 20260509033303 | 52 | 181 | 1.0 | 3.0 | 0.00 | 0.00 | 0.00 | 81 | 1019.8 |
| 20260509032404 | 52 | 195 | 1.0 | 3.0 | 0.00 | 0.00 | 0.00 | 81 | 1019.8 |
| 20260509031503 | 52 | 197 | 1.0 | 4.0 | 0.00 | 0.00 | 0.00 | 81 | 1019.8 |
| 20260509030603 | 52 | 200 | 2.0 | 6.0 | 0.00 | 0.00 | 0.00 | 81 | 1019.8 |
| 20260509024804 | 52 | 181 | 2.0 | 5.0 | 0.00 | 0.00 | 0.00 | 81 | 1019.7 |
| 20260509023903 | 52 | 190 | 2.0 | 5.0 | 0.00 | 0.00 | 0.00 | 81 | 1019.7 |
| 20260509023004 | 52 | 195 | 3.0 | 9.0 | 0.00 | 0.00 | 0.00 | 81 | 1019.8 |
| 20260509022103 | 52 | 188 | 2.0 | 6.0 | 0.00 | 0.00 | 0.00 | 81 | 1019.8 |
| 20260509021204 | 52 | 175 | 1.0 | 3.0 | 0.00 | 0.00 | 0.00 | 81 | 1019.7 |
| 20260509020304 | 52 | 157 | 1.0 | 3.0 | 0.00 | 0.00 | 0.00 | 81 | 1019.7 |
| 20260509015404 | 52 | 158 | 1.0 | 3.0 | 0.00 | 0.00 | 0.00 | 81 | 1019.6 |
| 20260509014503 | 52 | 138 | 1.0 | 3.0 | 0.00 | 0.00 | 0.00 | 80 | 1019.5 |
| 20260509013604 | 52 | 164 | 1.0 | 3.0 | 0.00 | 0.00 | 0.00 | 80 | 1019.4 |
| 20260509012703 | 52 | 195 | 1.0 | 3.0 | 0.00 | 0.00 | 0.00 | 80 | 1019.4 |
| 20260509010903 | 52 | 188 | 2.0 | 4.0 | 0.00 | 0.00 | 0.00 | 78 | 1019.1 |
| 20260509010004 | 52 | 177 | 1.0 | 6.0 | 0.00 | 0.00 | 0.00 | 77 | 1019.1 |
| 20260509005103 | 52 | 158 | 1.0 | 3.0 | 0.00 | 0.00 | 0.00 | 75 | 1018.9 |
| 20260509004203 | 53 | 160 | 1.0 | 3.0 | 0.00 | 0.00 | 0.00 | 74 | 1018.7 |
| 20260509003303 | 53 | 130 | 1.0 | 2.0 | 0.00 | 0.00 | 0.00 | 73 | 1018.8 |
| 20260509002403 | 53 | 161 | 1.0 | 2.0 | 0.00 | 0.00 | 0.00 | 72 | 1018.5 |
| 20260509001503 | 54 | 188 | 1.0 | 3.0 | 0.00 | 0.00 | 0.00 | 70 | 1018.5 |
| 20260508235703 | 56 | 203 | 1.0 | 3.0 | 0.00 | 0.00 | 0.00 | 68 | 1018.3 |
| 20260508234803 | 56 | 231 | 1.0 | 4.0 | 0.00 | 0.00 | 0.00 | 67 | 1018.1 |
| 20260508233903 | 56 | 219 | 2.0 | 4.0 | 0.00 | 0.00 | 0.00 | 65 | 1018.2 |
| 20260508233003 | 57 | 239 | 2.0 | 8.0 | 0.00 | 0.00 | 0.00 | 61 | 1018.0 |
| 20260508232103 | 57 | 269 | 3.0 | 8.0 | 0.00 | 0.00 | 0.00 | 55 | 1017.8 |
| 20260508231202 | 57 | 257 | 4.0 | 9.0 | 0.00 | 0.00 | 0.00 | 54 | 1017.8 |
| 20260508230303 | 58 | 254 | 4.0 | 9.0 | 0.00 | 0.00 | 0.00 | 54 | 1017.8 |
| 20260508224502 | 58 | 273 | 6.0 | 12.0 | 0.00 | 0.00 | 0.00 | 54 | 1017.7 |
| 20260508223602 | 58 | 275 | 5.0 | 11.0 | 0.00 | 0.00 | 0.00 | 54 | 1017.7 |
| 20260508222703 | 59 | 286 | 7.0 | 11.0 | 0.00 | 0.00 | 0.00 | 52 | 1017.6 |
| 20260508221802 | 59 | 287 | 4.0 | 8.0 | 0.00 | 0.00 | 0.00 | 52 | 1017.6 |
| 20260508220903 | 58 | 283 | 6.0 | 10.0 | 0.00 | 0.00 | 0.00 | 54 | 1017.7 |
| 20260508220003 | 57 | 278 | 5.0 | 12.0 | 0.00 | 0.00 | 0.00 | 56 | 1017.9 |
| 20260508215102 | 57 | 273 | 4.0 | 13.0 | 0.00 | 0.00 | 0.00 | 55 | 1017.8 |
| 20260508213302 | 57 | 284 | 6.0 | 13.0 | 0.00 | 0.00 | 0.00 | 56 | 1017.9 |
| 20260508211502 | 58 | 289 | 6.0 | 14.0 | 0.00 | 0.00 | 0.00 | 55 | 1017.9 |
| 20260508210602 | 58 | 292 | 7.0 | 15.0 | 0.00 | 0.00 | 0.00 | 54 | 1017.8 |
| 20260508205703 | 57 | 289 | 8.0 | 18.0 | 0.00 | 0.00 | 0.00 | 55 | 1017.9 |
| 20260508204803 | 58 | 296 | 7.0 | 16.0 | 0.00 | 0.00 | 0.00 | 55 | 1017.9 |
| 20260508203902 | 58 | 300 | 8.0 | 16.0 | 0.00 | 0.00 | 0.00 | 55 | 1017.8 |
| 20260508203002 | 58 | 301 | 10.0 | 19.0 | 0.00 | 0.00 | 0.00 | 53 | 1017.6 |
| 20260508202102 | 58 | 304 | 10.0 | 18.0 | 0.00 | 0.00 | 0.00 | 54 | 1017.7 |
| 20260508201202 | 58 | 300 | 9.0 | 20.0 | 0.00 | 0.00 | 0.00 | 53 | 1017.7 |
| 20260508200302 | 58 | 283 | 7.0 | 18.0 | 0.00 | 0.00 | 0.00 | 52 | 1017.7 |
| 20260508195402 | 56 | 284 | 9.0 | 20.0 | 0.00 | 0.00 | 0.00 | 55 | 1017.9 |
| 20260508194502 | 57 | 286 | 12.0 | 26.0 | 0.00 | 0.00 | 0.00 | 54 | 1018.0 |
| 20260508193603 | 57 | 292 | 10.0 | 19.0 | 0.00 | 0.00 | 0.00 | 53 | 1017.7 |
| 20260508192701 | 58 | 298 | 9.0 | 18.0 | 0.00 | 0.00 | 0.00 | 51 | 1017.6 |
| 20260508191801 | 60 | 295 | 9.0 | 18.0 | 0.00 | 0.00 | 0.00 | 46 | 1017.3 |
| 20260508190901 | 61 | 294 | 9.0 | 17.0 | 0.00 | 0.00 | 0.00 | 43 | 1017.2 |
| 20260508190002 | 60 | 284 | 8.0 | 19.0 | 0.00 | 0.00 | 0.00 | 43 | 1017.2 |
| 20260508185102 | 60 | 286 | 10.0 | 20.0 | 0.00 | 0.00 | 0.00 | 43 | 1017.3 |
| 20260508184202 | 60 | 277 | 10.0 | 21.0 | 0.00 | 0.00 | 0.00 | 43 | 1017.2 |
| 20260508183302 | 60 | 272 | 8.0 | 18.0 | 0.00 | 0.00 | 0.00 | 41 | 1017.2 |
| 20260508182401 | 60 | 269 | 9.0 | 17.0 | 0.00 | 0.00 | 0.00 | 42 | 1017.3 |
| 20260508181502 | 61 | 276 | 11.0 | 26.0 | 0.00 | 0.00 | 0.00 | 40 | 1017.3 |
| 20260508180601 | 62 | 278 | 9.0 | 21.0 | 0.00 | 0.00 | 0.00 | 40 | 1017.2 |
| 20260508175701 | 60 | 279 | 10.0 | 21.0 | 0.00 | 0.00 | 0.00 | 41 | 1017.2 |
| 20260508173902 | 60 | 272 | 7.0 | 16.0 | 0.00 | 0.00 | 0.00 | 44 | 1017.3 |
| 20260508173001 | 60 | 281 | 9.0 | 17.0 | 0.00 | 0.00 | 0.00 | 41 | 1017.3 |
| 20260508172101 | 60 | 282 | 9.0 | 21.0 | 0.00 | 0.00 | 0.00 | 42 | 1017.4 |
| 20260508170301 | 60 | 295 | 10.0 | 21.0 | 0.00 | 0.00 | 0.00 | 45 | 1017.3 |
| 20260508164502 | 59 | 289 | 8.0 | 14.0 | 0.00 | 0.00 | 0.00 | 44 | 1017.6 |
| 20260508163601 | 59 | 295 | 7.0 | 16.0 | 0.00 | 0.00 | 0.00 | 42 | 1017.8 |
| 20260508161801 | 58 | 300 | 9.0 | 17.0 | 0.00 | 0.00 | 0.00 | 43 | 1017.9 |